Weather History for Stanton, MN

Change the Weather History Date:

Saturday, January 11, 2014

  Actual Average (KLVN) Record (KLVN)
Temperature  
Mean Temperature 26 °F -  
Max Temperature 31 °F 20 °F 46 °F (1990)
Min Temperature 22 °F 0 °F -35 °F (1977)
Degree Days  
Heating Degree Days 38    
Moisture  
Dew Point 24 °F    
Average Humidity 87    
Maximum Humidity 94    
Minimum Humidity 77    
Precipitation  
Precipitation 0.00 in - - ()
Sea Level Pressure  
Sea Level Pressure 29.57 in    
Wind  
Wind Speed 8 mph (West)    
Max Wind Speed 18 mph    
Max Gust Speed 23 mph    
Visibility 7 miles    
Events Fog    
Averages and records for this station are not official NWS values.
T = Trace of Precipitation, MM = Missing Value Source: NWS Daily Summary

Daily Weather History Graph

Daily Weather History Graph

Search for Another Location

Airport:

Trip Planner

Search our weather history database for the weather conditions in past years. The results will help you decide how hot, cold, wet, or windy it might be!

Date:

Astronomy

Jan. 11, 2014 Rise Set
Actual Time 7:46 AM CST 4:53 PM CST
Civil Twilight 7:14 AM CST 5:26 PM CST
Nautical Twilight 6:37 AM CST 6:02 PM CST
Astronomical Twilight 6:02 AM CST 6:37 PM CST
Moon 1:39 PM CST (1/11) 3:50 AM CST (1/11)
Length of Visible Light 10h 12m
Length of Day
9h 06m
Waxing Gibbous, 83% of the Moon is Illuminated
Jan 11
Waxing Gibbous
Jan 15
Full
Jan 23
Last Quarter
Jan 30
New
Feb 6
First Quarter

Hourly Weather History & Observations

Time (CST) Temp. Windchill Dew Point Humidity Pressure Visibility Wind Dir Wind Speed Gust Speed Precip Events Conditions
12:12 AM 30.6 °F 25.8 °F 28.9 °F 94% 29.46 in 2.5 mi WSW 4.6 mph - N/A   Overcast
12:32 AM 30.7 °F 26.0 °F 29.1 °F 94% 29.46 in 0.5 mi WSW 4.6 mph - N/A Fog Light Freezing Fog
12:52 AM 30.7 °F 24.9 °F 29.1 °F 94% 29.46 in 1.5 mi WSW 5.8 mph - N/A   Overcast
1:12 AM 30.9 °F 26.2 °F 29.3 °F 94% 29.46 in 2.5 mi WSW 4.6 mph - N/A   Overcast
1:32 AM 30.9 °F 25.2 °F 29.3 °F 94% 29.46 in 3.0 mi West 5.8 mph - N/A   Overcast
1:52 AM 30.9 °F 23.5 °F 29.3 °F 94% 29.46 in 3.0 mi WNW 8.1 mph - N/A   Overcast
2:12 AM 30.9 °F 23.5 °F 29.3 °F 94% 29.47 in 3.0 mi West 8.1 mph - N/A   Overcast
2:32 AM 30.9 °F 24.3 °F 29.1 °F 93% 29.47 in 3.0 mi West 6.9 mph - N/A   Overcast
2:52 AM 30.9 °F 23.5 °F 28.9 °F 92% 29.47 in 4.0 mi West 8.1 mph - N/A   Overcast
3:12 AM 30.9 °F 22.8 °F 28.4 °F 90% 29.47 in 5.0 mi WNW 9.2 mph - N/A   Overcast
3:32 AM 30.7 °F 23.3 °F 27.5 °F 88% 29.46 in 5.0 mi WNW 8.1 mph - N/A   Overcast
3:52 AM 30.7 °F 24.1 °F 27.9 °F 89% 29.47 in 4.0 mi WNW 6.9 mph - N/A   Overcast
4:12 AM 30.7 °F 24.1 °F 27.5 °F 88% 29.47 in 4.0 mi WNW 6.9 mph - N/A   Overcast
4:32 AM 30.7 °F 24.9 °F 27.3 °F 87% 29.47 in 4.0 mi West 5.8 mph - N/A   Overcast
4:52 AM 30.7 °F 22.6 °F 27.1 °F 86% 29.47 in 5.0 mi West 9.2 mph - N/A   Overcast
5:12 AM 30.0 °F 23.2 °F 26.4 °F 86% 29.47 in 5.0 mi WNW 6.9 mph - N/A   Overcast
5:32 AM 29.8 °F 23.0 °F 26.6 °F 88% 29.47 in 5.0 mi West 6.9 mph - N/A   Overcast
5:52 AM 29.5 °F 24.5 °F 26.4 °F 88% 29.47 in 4.0 mi West 4.6 mph - N/A   Overcast
6:12 AM 29.1 °F 22.1 °F 25.7 °F 87% 29.48 in 5.0 mi West 6.9 mph - N/A   Overcast
6:32 AM 28.4 °F 19.7 °F 25.3 °F 88% 29.48 in 5.0 mi West 9.2 mph - N/A   Overcast
6:52 AM 27.7 °F 18.8 °F 24.8 °F 89% 29.50 in 5.0 mi West 9.2 mph - N/A   Overcast
7:12 AM 26.4 °F 16.0 °F 23.5 °F 89% 29.50 in 5.0 mi West 11.5 mph - N/A   Overcast
7:32 AM 25.3 °F 14.7 °F 22.5 °F 89% 29.51 in 5.0 mi West 11.5 mph - N/A   Overcast
7:52 AM 24.6 °F 15.8 °F 21.9 °F 89% 29.51 in 5.0 mi West 8.1 mph - N/A   Overcast
8:12 AM 24.6 °F 15.1 °F 21.9 °F 89% 29.53 in 5.0 mi West 9.2 mph - N/A   Overcast
8:32 AM 24.4 °F 15.6 °F 21.2 °F 87% 29.54 in 5.0 mi West 8.1 mph - N/A   Overcast
8:52 AM 24.6 °F 17.7 °F 21.2 °F 87% 29.54 in 4.0 mi West 5.8 mph - N/A   Overcast
9:12 AM 24.8 °F 16.1 °F 21.9 °F 89% 29.55 in 4.0 mi West 8.1 mph - N/A   Overcast
9:31 AM 25.3 °F 16.7 °F 22.5 °F 89% 29.55 in 3.0 mi West 8.1 mph - N/A   Overcast
9:52 AM 26.2 °F 17.1 °F 23.0 °F 88% 29.55 in 5.0 mi West 9.2 mph - N/A   Overcast
10:12 AM 26.6 °F 16.8 °F 23.4 °F 88% 29.55 in 5.0 mi West 10.4 mph - N/A   Overcast
10:32 AM 27.3 °F 16.6 °F 23.7 °F 86% 29.57 in 7.0 mi WNW 12.7 mph - N/A   Overcast
10:52 AM 27.7 °F 16.6 °F 23.9 °F 86% 29.58 in 5.0 mi West 13.8 mph - N/A   Overcast
11:12 AM 28.0 °F 16.5 °F 23.9 °F 84% 29.58 in 7.0 mi West 15.0 mph - N/A   Overcast
11:32 AM 28.4 °F 16.6 °F 24.4 °F 85% 29.58 in 5.0 mi West 16.1 mph 19.6 mph N/A   Overcast
11:52 AM 28.9 °F 16.9 °F 24.8 °F 84% 29.59 in 7.0 mi West 17.3 mph - N/A   Overcast
12:12 PM 29.3 °F 17.3 °F 25.3 °F 85% 29.59 in 7.0 mi WNW 17.3 mph - N/A   Overcast
12:32 PM 30.0 °F 17.9 °F 25.2 °F 82% 29.58 in 7.0 mi WNW 18.4 mph - N/A   Overcast
12:52 PM 30.4 °F 18.4 °F 25.2 °F 81% 29.58 in 10.0 mi WNW 18.4 mph - N/A   Overcast
1:12 PM 30.6 °F 18.6 °F 25.0 °F 80% 29.58 in 10.0 mi WNW 18.4 mph 21.9 mph N/A   Overcast
1:32 PM 30.6 °F 19.0 °F 25.2 °F 80% 29.59 in 10.0 mi WNW 17.3 mph 23.0 mph N/A   Overcast
1:52 PM 30.9 °F 20.2 °F 25.3 °F 80% 29.59 in 10.0 mi WNW 15.0 mph - N/A   Overcast
2:12 PM 30.7 °F 20.0 °F 25.0 °F 79% 29.60 in 10.0 mi WNW 15.0 mph - N/A   Overcast
2:32 PM 31.1 °F 20.9 °F 25.2 °F 79% 29.61 in 10.0 mi West 13.8 mph 19.6 mph N/A   Overcast
2:52 PM 30.7 °F 20.0 °F 24.8 °F 79% 29.61 in 10.0 mi West 15.0 mph - N/A   Overcast
3:12 PM 30.9 °F 20.7 °F 24.6 °F 77% 29.63 in 10.0 mi West 13.8 mph - N/A   Overcast
3:32 PM 30.4 °F 20.0 °F 24.6 °F 79% 29.63 in 10.0 mi West 13.8 mph - N/A   Overcast
3:52 PM 30.4 °F 22.2 °F 24.1 °F 77% 29.63 in 10.0 mi West 9.2 mph - N/A   Mostly Cloudy
4:12 PM 29.3 °F 20.8 °F 23.4 °F 78% 29.64 in 10.0 mi West 9.2 mph - N/A   Scattered Clouds
4:32 PM 28.4 °F 20.4 °F 23.0 °F 80% 29.65 in 10.0 mi WSW 8.1 mph - N/A   Scattered Clouds
4:52 PM 28.4 °F 19.1 °F 23.4 °F 81% 29.66 in 10.0 mi WSW 10.4 mph - N/A   Overcast
5:12 PM 28.2 °F 19.5 °F 23.7 °F 83% 29.66 in 10.0 mi West 9.2 mph - N/A   Overcast
5:32 PM 28.2 °F 22.0 °F 23.9 °F 84% 29.66 in 10.0 mi WSW 5.8 mph - N/A   Overcast
5:52 PM 28.4 °F 19.1 °F 24.4 °F 85% 29.67 in 10.0 mi West 10.4 mph - N/A   Overcast
6:12 PM 28.4 °F 18.5 °F 24.8 °F 86% 29.68 in 10.0 mi WSW 11.5 mph - N/A   Overcast
6:32 PM 28.8 °F 20.9 °F 25.0 °F 86% 29.69 in 10.0 mi WSW 8.1 mph - N/A   Overcast
6:52 PM 28.6 °F 20.7 °F 24.8 °F 86% 29.69 in 10.0 mi WSW 8.1 mph - N/A   Overcast
7:12 PM 27.5 °F 20.2 °F 23.9 °F 86% 29.69 in 10.0 mi SW 6.9 mph - N/A   Mostly Cloudy
7:32 PM 24.3 °F 15.4 °F 21.0 °F 87% 29.68 in 7.0 mi SW 8.1 mph - N/A   Scattered Clouds
7:52 PM 23.5 °F 16.4 °F 21.2 °F 91% 29.68 in 7.0 mi SSW 5.8 mph - N/A   Clear
8:12 PM 23.5 °F 14.5 °F 20.8 °F 89% 29.68 in 7.0 mi SSW 8.1 mph - N/A   Clear
8:32 PM 22.6 °F 18.0 °F 20.1 °F 90% 29.67 in 7.0 mi SSW 3.5 mph - N/A   Clear
8:52 PM 23.9 °F 18.0 °F 21.7 °F 91% 29.67 in 7.0 mi SSW 4.6 mph - N/A   Clear
9:12 PM 24.8 °F 19.1 °F 22.6 °F 91% 29.66 in 7.0 mi South 4.6 mph - N/A   Clear
9:32 PM 22.6 °F 13.4 °F 20.1 °F 90% 29.66 in 7.0 mi SSW 8.1 mph - N/A   Clear
9:52 PM 23.5 °F 15.4 °F 21.0 °F 90% 29.66 in 7.0 mi SSW 6.9 mph - N/A   Clear
10:12 PM 23.0 °F 15.8 °F 20.1 °F 89% 29.67 in 7.0 mi SSW 5.8 mph - N/A   Clear
10:32 PM 22.3 °F 13.9 °F 19.8 °F 90% 29.66 in 7.0 mi South 6.9 mph - N/A   Clear
10:52 PM 22.8 °F 15.5 °F 19.9 °F 89% 29.66 in 10.0 mi SSW 5.8 mph - N/A   Clear
11:12 PM 23.7 °F 16.6 °F 20.8 °F 89% 29.66 in 10.0 mi SSW 5.8 mph - N/A   Clear
11:32 PM 23.5 °F 17.6 °F 20.3 °F 87% 29.65 in 10.0 mi SSW 4.6 mph - N/A   Clear
11:52 PM 22.6 °F 15.3 °F 19.4 °F 87% 29.63 in 10.0 mi SSW 5.8 mph - N/A   Clear